Terminal Aerodrome Forecast
Issued by NWS

Current Version | Previous Version | Graphics & Text | Print | Product List | Glossary On
Versions: 1 2 3 4 5 6 7 8 9 10 11 12 13 14 15 16 17 18 19
736
FTUS41 KILN 200525
TAFLUK
TAF
KLUK 200525Z 2006/2106 VRB03KT P6SM FEW250
     FM200700 00000KT 4SM BR SCT010
     FM200900 00000KT 1/4SM FG VV002
     FM201200 00000KT 4SM BR SCT002
     FM201400 19004KT P6SM FEW045
     FM210100 00000KT P6SM SKC=

USA.gov is the U.S. government's official web portal to all federal, state and local government web resources and services.